This demonstration page uses our WeatherBlox Daily Observations layout. Learn more.

Left ArrowRight Arrow

Hourly Observations for February 14, 2017

Temp ( °F °C ) Dew Point ( °F °C ) Humidity (%) Winds ( mph kmh ) Pressure ( in mb ) Visibility ( mi km ) Precip ( " mm )
12:53 am 00:53 Clear 32 0 27 -2.8 82 82 WSW 12 19 30.27 1025 10 16 0.00 0.00
1:53 am 01:53 Clear 31 -0.6 26 -3.3 82 82 WSW 12 19 30.26 1025 10 16 0.00 0.00
2:53 am 02:53 Clear 31 -0.6 26 -3.3 82 82 WSW 14 22 30.27 1025 10 16 0.00 0.00
3:53 am 03:53 Clear 31 -0.6 26 -3.3 82 82 SW 15 24 30.25 1025 10 16 0.00 0.00
4:53 am 04:53 Clear 31 -0.6 27 -2.8 85 85 SW 13 20 30.27 1025 10 16 0.00 0.00
5:53 am 05:53 Clear 30 -1.1 26 -3.3 85 85 SW 9 15 30.29 1026 10 16 0.00 0.00
6:53 am 06:53 Clear 29 -1.7 25 -3.9 85 85 WSW 9 15 30.30 1026 10 16 0.00 0.00
7:53 am 07:53 Sunny 30 -1.1 25 -3.9 82 82 SW 13 20 30.29 1026 10 16 0.00 0.00
8:53 am 08:53 Sunny 35 1.7 27 -2.8 72 72 SW 12 19 30.28 1026 10 16 0.00 0.00
9:53 am 09:53 Sunny 40 4.4 30 -1.1 68 68 WSW 10 17 30.26 1025 10 16 0.00 0.00
10:53 am 10:53 Sunny 43 6.1 31 -0.6 63 63 SW 16 26 30.24 1024 10 16 0.00 0.00
11:53 am 11:53 Sunny 44 6.7 28 -2.2 53 53 WSW 17 28 30.22 1023 10 16 0.00 0.00
12:53 pm 12:53 Sunny 46 7.8 30 -1.1 54 54 WSW 15 24 30.18 1022 10 16 0.00 0.00
1:53 pm 13:53 Sunny 48 8.9 31 -0.6 52 52 WSW 17 28 30.15 1021 10 16 0.00 0.00
2:53 pm 14:53 Sunny 50 10 32 0 50 50 W 13 20 30.12 1020 10 16 0.00 0.00
3:53 pm 15:53 Sunny 50 10 34 1.1 54 54 W 8 13 30.11 1020 10 16 0.00 0.00
4:53 pm 16:53 Sunny 50 10 34 1.1 54 54 WNW 3 6 30.09 1019 10 16 0.00 0.00
5:53 pm 17:53 Clear 43 6.1 34 1.1 71 71 Calm 30.08 1019 10 16 0.00 0.00
6:53 pm 18:53 Clear 41 5 32 0 70 70 W 5 7 30.06 1018 10 16 0.00 0.00
7:53 pm 19:53 Clear 36 2.2 31 -0.6 82 82 W 6 9 30.03 1017 10 16 0.00 0.00
8:53 pm 20:53 Clear 36 2.2 30 -1.1 79 79 SW 14 22 30.01 1016 10 16 0.00 0.00
9:53 pm 21:53 Clear 34 1.1 30 -1.1 85 85 SW 13 20 29.99 1016 10 16 0.00 0.00
10:53 pm 22:53 Clear 37 2.8 29 -1.7 73 73 W 9 15 29.96 1015 10 16 0.00 0.00
11:53 pm 23:53 Clear 35 1.7 29 -1.7 78 78 W 8 13 29.94 1014 10 16 0.00 0.00

Powered by AerisWeather